User: anonymous   Login
Location: Vancouver
(49.2500°N, 123.1330°W)
Time: 09:21:19
(UTC-08:00)
Language:

YAOGAN 6 - Orbit

View from above orbital plane
View from above orbital plane
View from above satellite
View from above satellite

Ground track
Ground track

The orbit data is extracted from the following two-line orbital elements,

1 34839U 09021A   14330.12968465  .00006800  00000-0  30333-3 0  2421
2 34839 097.2699 040.2805 0032897 025.7666 061.2271 15.21212405310311
Epoch (UTC): 26 November 2014 03:06:44
Eccentricity: 0.0032897
inclination: 97.2699°
perigee height: 479 km
apogee height: 525 km
right ascension of ascending node: 40.2805°
argument of perigee: 25.7666°
revolutions per day: 15.21212405
mean anomaly at epoch: 61.2271°
orbit number at epoch: 31031

The dashed part of the orbit path shows where the satellite is in the earth's shadow,  

DLR